Time,TemperatureF,DewpointF,PressureIn,WindDirection,WindDirectionDegrees,WindSpeedMPH,WindSpeedGustMPH,Humidity,HourlyPrecipIn,Conditions,Clouds,dailyrainin,SoftwareType,DateUTC
2013-02-20 00:05:00,44.0,-99.9,29.86,North,354,13.0,16.0,-999,-99.99,,,-99.99,,2013-02-20 08:05:00,
2013-02-20 00:11:00,-999.0,-99.9,29.86,North,352,14.0,17.0,-999,-99.99,,,-99.99,,2013-02-20 08:11:00,
2013-02-20 00:22:00,44.0,-99.9,29.86,North,349,13.0,16.0,-999,-99.99,,,-99.99,,2013-02-20 08:22:00,
2013-02-20 00:32:00,44.0,-99.9,29.87,NNW,347,15.0,18.0,-999,-99.99,,,-99.99,,2013-02-20 08:32:00,
2013-02-20 00:42:00,-999.0,-99.9,29.87,North,350,15.0,18.0,-999,-99.99,,,-99.99,,2013-02-20 08:42:00,
2013-02-20 00:52:00,44.0,-99.9,29.87,NNW,344,13.0,18.0,-999,-99.99,,,-99.99,,2013-02-20 08:52:00,
2013-02-20 01:02:00,-999.0,-99.9,29.87,NNW,345,12.0,18.0,-999,-99.99,,,-99.99,,2013-02-20 09:02:00,
2013-02-20 01:11:00,44.0,-99.9,29.88,NNW,346,9.0,14.0,-999,-99.99,,,-99.99,,2013-02-20 09:11:00,
2013-02-20 01:22:00,43.0,-99.9,29.88,SSW,203,4.0,5.0,-999,-99.99,,,-99.99,,2013-02-20 09:22:00,
2013-02-20 01:32:00,41.0,-99.9,29.88,SSW,201,5.0,6.0,-999,-99.99,,,-99.99,,2013-02-20 09:32:00,
2013-02-20 01:42:00,-999.0,-99.9,29.88,SSW,210,4.0,5.0,-999,-99.99,,,-99.99,,2013-02-20 09:42:00,
2013-02-20 01:52:00,40.0,-99.9,29.88,SSW,204,3.0,5.0,-999,-99.99,,,-99.99,,2013-02-20 09:52:00,
2013-02-20 02:01:00,40.0,-99.9,29.89,SE,135,2.0,4.0,-999,-99.99,,,-99.99,,2013-02-20 10:01:00,
2013-02-20 02:12:00,40.0,-99.9,29.89,SSW,194,3.0,4.0,-999,-99.99,,,-99.99,,2013-02-20 10:12:00,
2013-02-20 02:22:00,40.0,-99.9,29.89,North,-999,-999.0,-999.0,-999,-99.99,,,-99.99,,2013-02-20 10:22:00,
2013-02-20 02:32:00,-999.0,-99.9,29.90,SSW,210,5.0,6.0,-999,-99.99,,,-99.99,,2013-02-20 10:32:00,
2013-02-20 02:42:00,40.0,-99.9,29.90,SW,214,5.0,6.0,-999,-99.99,,,-99.99,,2013-02-20 10:42:00,
2013-02-20 02:52:00,40.0,-99.9,29.91,SSW,206,4.0,5.0,-999,-99.99,,,-99.99,,2013-02-20 10:52:00,
2013-02-20 03:02:00,40.0,-99.9,29.91,SSW,213,5.0,5.0,-999,-99.99,,,-99.99,,2013-02-20 11:02:00,
2013-02-20 03:11:00,40.0,-99.9,29.91,SSW,194,5.0,6.0,-999,-99.99,,,-99.99,,2013-02-20 11:11:00,
2013-02-20 03:22:00,40.0,-99.9,29.90,SSW,199,4.0,6.0,-999,-99.99,,,-99.99,,2013-02-20 11:22:00,
2013-02-20 03:32:00,-999.0,-99.9,29.90,SW,224,5.0,6.0,-999,-99.99,,,-99.99,,2013-02-20 11:32:00,
2013-02-20 03:42:00,41.0,-99.9,29.91,SW,232,4.0,5.0,-999,-99.99,,,-99.99,,2013-02-20 11:42:00,
2013-02-20 03:52:00,41.0,-99.9,29.91,West,259,4.0,5.0,-999,-99.99,,,-99.99,,2013-02-20 11:52:00,
2013-02-20 04:02:00,43.0,-99.9,29.91,WSW,242,4.0,8.0,-999,-99.99,,,-99.99,,2013-02-20 12:02:00,
2013-02-20 04:12:00,42.0,-99.9,29.91,SW,233,3.0,7.0,-999,-99.99,,,-99.99,,2013-02-20 12:12:00,
2013-02-20 04:22:00,-999.0,-99.9,29.91,SW,223,4.0,5.0,-999,-99.99,,,-99.99,,2013-02-20 12:22:00,
2013-02-20 04:32:00,41.0,-99.9,29.91,SE,140,1.0,2.0,-999,-99.99,,,-99.99,,2013-02-20 12:32:00,
2013-02-20 04:42:00,41.0,-99.9,29.91,North,-999,-999.0,-999.0,-999,-99.99,,,-99.99,,2013-02-20 12:42:00,
2013-02-20 04:53:00,-999.0,-99.9,29.92,SSW,212,2.0,5.0,-999,-99.99,,,-99.99,,2013-02-20 12:53:00,
2013-02-20 05:02:00,40.0,-99.9,29.92,SSW,213,3.0,4.0,-999,-99.99,,,-99.99,,2013-02-20 13:02:00,
2013-02-20 05:12:00,40.0,-99.9,29.92,South,170,4.0,5.0,-999,-99.99,,,-99.99,,2013-02-20 13:12:00,
2013-02-20 05:22:00,40.0,-99.9,29.93,SSW,193,5.0,6.0,-999,-99.99,,,-99.99,,2013-02-20 13:22:00,
2013-02-20 05:32:00,-999.0,-99.9,29.93,SSW,205,3.0,5.0,-999,-99.99,,,-99.99,,2013-02-20 13:32:00,
2013-02-20 05:42:00,-999.0,-99.9,29.93,SSW,194,5.0,5.0,-999,-99.99,,,-99.99,,2013-02-20 13:42:00,
2013-02-20 06:01:00,40.0,-99.9,29.93,SSW,207,4.0,4.0,-999,-99.99,,,-99.99,,2013-02-20 14:01:00,
2013-02-20 06:11:00,40.0,-99.9,29.93,North,-999,-999.0,-999.0,-999,-99.99,,,-99.99,,2013-02-20 14:11:00,
2013-02-20 06:22:00,40.0,-99.9,29.94,South,187,3.0,4.0,-999,-99.99,,,-99.99,,2013-02-20 14:22:00,
2013-02-20 06:32:00,40.0,-99.9,29.94,SSW,202,4.0,4.0,-999,-99.99,,,-99.99,,2013-02-20 14:32:00,
2013-02-20 06:42:00,40.0,-99.9,29.94,SSW,212,5.0,5.0,-999,-99.99,,,-99.99,,2013-02-20 14:42:00,
2013-02-20 06:52:00,-999.0,-99.9,29.95,SSW,208,5.0,5.0,-999,-99.99,,,-99.99,,2013-02-20 14:52:00,
2013-02-20 07:02:00,-999.0,-99.9,29.95,SSW,197,5.0,6.0,-999,-99.99,,,-99.99,,2013-02-20 15:02:00,
2013-02-20 07:12:00,40.0,-99.9,29.95,SSW,207,4.0,5.0,-999,-99.99,,,-99.99,,2013-02-20 15:12:00,
2013-02-20 07:22:00,40.0,-99.9,29.96,South,178,4.0,4.0,-999,-99.99,,,-99.99,,2013-02-20 15:22:00,
2013-02-20 07:32:00,40.0,-99.9,29.96,South,174,3.0,4.0,-999,-99.99,,,-99.99,,2013-02-20 15:32:00,
2013-02-20 07:42:00,40.0,-99.9,29.96,South,191,4.0,4.0,-999,-99.99,,,-99.99,,2013-02-20 15:42:00,
2013-02-20 07:52:00,41.0,-99.9,29.97,SSW,195,3.0,4.0,-999,-99.99,,,-99.99,,2013-02-20 15:52:00,
2013-02-20 08:01:00,42.0,-99.9,29.98,SSW,197,2.0,4.0,-999,-99.99,,,-99.99,,2013-02-20 16:01:00,
2013-02-20 08:12:00,43.0,-99.9,29.98,SSW,194,2.0,2.0,-999,-99.99,,,-99.99,,2013-02-20 16:12:00,
2013-02-20 08:22:00,-999.0,-99.9,29.98,SSW,203,3.0,4.0,-999,-99.99,,,-99.99,,2013-02-20 16:22:00,
2013-02-20 08:32:00,44.0,-99.9,29.98,SSE,160,2.0,3.0,-999,-99.99,,,-99.99,,2013-02-20 16:32:00,
2013-02-20 08:42:00,44.0,-99.9,29.99,South,169,3.0,5.0,-999,-99.99,,,-99.99,,2013-02-20 16:42:00,
2013-02-20 08:52:00,47.0,-99.9,29.99,SE,128,2.0,3.0,-999,-99.99,,,-99.99,,2013-02-20 16:52:00,
2013-02-20 09:01:00,47.0,-99.9,29.99,SE,125,2.0,3.0,-999,-99.99,,,-99.99,,2013-02-20 17:01:00,
2013-02-20 09:12:00,47.0,-99.9,30.00,ENE,66,4.0,5.0,-999,-99.99,,,-99.99,,2013-02-20 17:12:00,
2013-02-20 09:21:00,47.0,-99.9,30.00,East,100,2.0,3.0,-999,-99.99,,,-99.99,,2013-02-20 17:21:00,
2013-02-20 09:32:00,47.0,-99.9,30.01,ENE,76,2.0,4.0,-999,-99.99,,,-99.99,,2013-02-20 17:32:00,
2013-02-20 09:42:00,47.0,-99.9,30.01,ENE,74,2.0,3.0,-999,-99.99,,,-99.99,,2013-02-20 17:42:00,
2013-02-20 09:52:00,48.0,-99.9,30.01,ENE,78,1.0,2.0,-999,-99.99,,,-99.99,,2013-02-20 17:52:00,
2013-02-20 10:02:00,-999.0,-99.9,30.01,ENE,76,0.0,2.0,-999,-99.99,,,-99.99,,2013-02-20 18:02:00,
2013-02-20 10:11:00,47.0,-99.9,30.02,NE,38,3.0,4.0,-999,-99.99,,,-99.99,,2013-02-20 18:11:00,
2013-02-20 10:22:00,47.0,-99.9,30.02,North,357,1.0,3.0,-999,-99.99,,,-99.99,,2013-02-20 18:22:00,
2013-02-20 10:32:00,47.0,-99.9,30.01,ENE,72,2.0,3.0,-999,-99.99,,,-99.99,,2013-02-20 18:32:00,
2013-02-20 10:42:00,48.0,-99.9,30.02,North,9,2.0,3.0,-999,-99.99,,,-99.99,,2013-02-20 18:42:00,
2013-02-20 10:52:00,49.0,-99.9,30.02,WSW,256,6.0,9.0,-999,-99.99,,,-99.99,,2013-02-20 18:52:00,
2013-02-20 11:02:00,49.0,-99.9,30.02,WSW,258,4.0,10.0,-999,-99.99,,,-99.99,,2013-02-20 19:02:00,
2013-02-20 11:12:00,49.0,-99.9,30.02,WSW,258,4.0,10.0,-999,-99.99,,,-99.99,,2013-02-20 19:12:00,
2013-02-20 11:21:00,49.0,-99.9,30.02,WNW,286,9.0,12.0,-999,-99.99,,,-99.99,,2013-02-20 19:21:00,
2013-02-20 11:32:00,50.0,-99.9,30.02,West,277,6.0,12.0,-999,-99.99,,,-99.99,,2013-02-20 19:32:00,
2013-02-20 11:42:00,50.0,-99.9,30.02,West,275,9.0,12.0,-999,-99.99,,,-99.99,,2013-02-20 19:42:00,
2013-02-20 11:52:00,51.0,-99.9,30.02,WSW,249,8.0,11.0,-999,-99.99,,,-99.99,,2013-02-20 19:52:00,
2013-02-20 12:01:00,-999.0,-99.9,30.02,West,261,7.0,11.0,-999,-99.99,,,-99.99,,2013-02-20 20:01:00,
2013-02-20 12:11:00,-999.0,-99.9,30.02,WSW,255,8.0,13.0,-999,-99.99,,,-99.99,,2013-02-20 20:11:00,
2013-02-20 12:21:00,-999.0,-99.9,30.02,West,270,8.0,12.0,-999,-99.99,,,-99.99,,2013-02-20 20:21:00,
2013-02-20 12:31:00,52.0,-99.9,30.01,West,272,9.0,11.0,-999,-99.99,,,-99.99,,2013-02-20 20:31:00,
2013-02-20 12:41:00,51.0,-99.9,30.02,West,280,11.0,15.0,-999,-99.99,,,-99.99,,2013-02-20 20:41:00,
2013-02-20 12:52:00,-999.0,-99.9,30.01,West,278,10.0,16.0,-999,-99.99,,,-99.99,,2013-02-20 20:52:00,
2013-02-20 13:01:00,-999.0,-99.9,30.01,West,267,11.0,14.0,-999,-99.99,,,-99.99,,2013-02-20 21:01:00,
2013-02-20 13:11:00,52.0,-99.9,30.01,West,275,10.0,15.0,-999,-99.99,,,-99.99,,2013-02-20 21:11:00,
2013-02-20 13:21:00,52.0,-99.9,30.01,West,280,7.0,14.0,-999,-99.99,,,-99.99,,2013-02-20 21:21:00,
2013-02-20 13:32:00,52.0,-99.9,30.01,West,280,7.0,14.0,-999,-99.99,,,-99.99,,2013-02-20 21:32:00,
2013-02-20 13:42:00,53.0,-99.9,30.00,West,266,9.0,12.0,-999,-99.99,,,-99.99,,2013-02-20 21:42:00,
2013-02-20 13:52:00,53.0,-99.9,30.00,West,266,9.0,12.0,-999,-99.99,,,-99.99,,2013-02-20 21:52:00,
2013-02-20 14:02:00,52.0,-99.9,30.01,West,278,11.0,16.0,-999,-99.99,,,-99.99,,2013-02-20 22:02:00,
2013-02-20 14:11:00,52.0,-99.9,30.01,West,278,11.0,16.0,-999,-99.99,,,-99.99,,2013-02-20 22:11:00,
2013-02-20 14:21:00,52.0,-99.9,30.00,West,263,12.0,17.0,-999,-99.99,,,-99.99,,2013-02-20 22:21:00,
2013-02-20 14:32:00,53.0,-99.9,29.99,WSW,245,7.0,12.0,-999,-99.99,,,-99.99,,2013-02-20 22:32:00,
2013-02-20 14:43:00,53.0,-99.9,29.98,West,279,12.0,17.0,-999,-99.99,,,-99.99,,2013-02-20 22:43:00,
2013-02-20 14:52:00,53.0,-99.9,29.98,West,269,13.0,17.0,-999,-99.99,,,-99.99,,2013-02-20 22:52:00,
2013-02-20 15:01:00,53.0,-99.9,29.98,West,266,13.0,18.0,-999,-99.99,,,-99.99,,2013-02-20 23:01:00,
2013-02-20 15:12:00,-999.0,-99.9,29.98,West,273,10.0,16.0,-999,-99.99,,,-99.99,,2013-02-20 23:12:00,
2013-02-20 15:22:00,-999.0,-99.9,29.99,WNW,292,9.0,15.0,-999,-99.99,,,-99.99,,2013-02-20 23:22:00,
2013-02-20 15:32:00,53.0,-99.9,29.99,West,263,12.0,17.0,-999,-99.99,,,-99.99,,2013-02-20 23:32:00,
2013-02-20 15:43:00,53.0,-99.9,29.99,West,260,7.0,13.0,-999,-99.99,,,-99.99,,2013-02-20 23:43:00,
2013-02-20 15:53:00,-999.0,-99.9,29.99,WSW,251,9.0,16.0,-999,-99.99,,,-99.99,,2013-02-20 23:53:00,
2013-02-20 16:03:00,-999.0,-99.9,29.99,WSW,254,11.0,18.0,-999,-99.99,,,-99.99,,2013-02-21 00:03:00,
2013-02-20 16:11:00,53.0,-99.9,29.99,West,271,12.0,16.0,-999,-99.99,,,-99.99,,2013-02-21 00:11:00,
2013-02-20 16:22:00,-999.0,-99.9,29.99,West,264,9.0,16.0,-999,-99.99,,,-99.99,,2013-02-21 00:22:00,
2013-02-20 16:32:00,53.0,-99.9,29.99,West,261,10.0,14.0,-999,-99.99,,,-99.99,,2013-02-21 00:32:00,
2013-02-20 16:42:00,53.0,-99.9,29.99,West,273,10.0,15.0,-999,-99.99,,,-99.99,,2013-02-21 00:42:00,
2013-02-20 16:52:00,53.0,-99.9,30.00,WSW,258,10.0,15.0,-999,-99.99,,,-99.99,,2013-02-21 00:52:00,
2013-02-20 17:01:00,53.0,-99.9,30.00,West,262,9.0,15.0,-999,-99.99,,,-99.99,,2013-02-21 01:01:00,
2013-02-20 17:12:00,53.0,-99.9,30.00,West,276,9.0,17.0,-999,-99.99,,,-99.99,,2013-02-21 01:12:00,
2013-02-20 17:22:00,53.0,-99.9,29.99,West,265,9.0,15.0,-999,-99.99,,,-99.99,,2013-02-21 01:22:00,
2013-02-20 17:32:00,52.0,-99.9,29.99,West,260,9.0,15.0,-999,-99.99,,,-99.99,,2013-02-21 01:32:00,
2013-02-20 17:42:00,52.0,-99.9,29.99,West,271,9.0,14.0,-999,-99.99,,,-99.99,,2013-02-21 01:42:00,
2013-02-20 17:52:00,-999.0,-99.9,30.00,West,266,9.0,13.0,-999,-99.99,,,-99.99,,2013-02-21 01:52:00,
2013-02-20 18:02:00,52.0,-99.9,30.00,WSW,253,7.0,16.0,-999,-99.99,,,-99.99,,2013-02-21 02:02:00,
2013-02-20 18:11:00,-999.0,-99.9,30.00,WSW,256,8.0,15.0,-999,-99.99,,,-99.99,,2013-02-21 02:11:00,
2013-02-20 18:22:00,51.0,-99.9,30.01,West,262,11.0,17.0,-999,-99.99,,,-99.99,,2013-02-21 02:22:00,
2013-02-20 18:32:00,51.0,-99.9,30.01,West,261,10.0,14.0,-999,-99.99,,,-99.99,,2013-02-21 02:32:00,
2013-02-20 18:42:00,51.0,-99.9,30.01,West,261,10.0,14.0,-999,-99.99,,,-99.99,,2013-02-21 02:42:00,
2013-02-20 18:52:00,51.0,-99.9,30.01,West,261,10.0,14.0,-999,-99.99,,,-99.99,,2013-02-21 02:52:00,
2013-02-20 19:02:00,51.0,-99.9,30.01,West,263,10.0,15.0,-999,-99.99,,,-99.99,,2013-02-21 03:02:00,
2013-02-20 19:12:00,50.0,-99.9,30.01,West,260,11.0,15.0,-999,-99.99,,,-99.99,,2013-02-21 03:12:00,
2013-02-20 19:22:00,50.0,-99.9,30.01,West,267,11.0,15.0,-999,-99.99,,,-99.99,,2013-02-21 03:22:00,
2013-02-20 19:32:00,50.0,-99.9,30.02,West,259,11.0,16.0,-999,-99.99,,,-99.99,,2013-02-21 03:32:00,
2013-02-20 19:42:00,50.0,-99.9,30.02,WSW,249,11.0,15.0,-999,-99.99,,,-99.99,,2013-02-21 03:42:00,
2013-02-20 19:52:00,-999.0,-99.9,30.02,WSW,246,9.0,17.0,-999,-99.99,,,-99.99,,2013-02-21 03:52:00,
2013-02-20 20:01:00,-999.0,-99.9,30.03,WSW,252,9.0,13.0,-999,-99.99,,,-99.99,,2013-02-21 04:01:00,
2013-02-20 20:11:00,-999.0,-99.9,30.03,WSW,257,9.0,12.0,-999,-99.99,,,-99.99,,2013-02-21 04:11:00,
2013-02-20 20:22:00,49.0,-99.9,30.04,West,264,11.0,15.0,-999,-99.99,,,-99.99,,2013-02-21 04:22:00,
2013-02-20 20:32:00,49.0,-99.9,30.04,West,260,4.0,9.0,-999,-99.99,,,-99.99,,2013-02-21 04:32:00,
2013-02-20 20:36:00,48.0,-99.9,30.05,SSW,202,3.0,5.0,-999,-99.99,,,-99.99,,2013-02-21 04:36:00,
2013-02-20 20:42:00,49.0,-99.9,30.04,WSW,247,3.0,5.0,-999,-99.99,,,-99.99,,2013-02-21 04:42:00,
2013-02-20 20:52:00,49.0,-99.9,30.05,WSW,257,5.0,7.0,-999,-99.99,,,-99.99,,2013-02-21 04:52:00,
2013-02-20 21:03:00,48.0,-99.9,30.05,SSW,202,3.0,5.0,-999,-99.99,,,-99.99,,2013-02-21 05:03:00,
2013-02-20 21:12:00,48.0,-99.9,30.05,SSW,202,3.0,5.0,-999,-99.99,,,-99.99,,2013-02-21 05:12:00,
2013-02-20 21:22:00,48.0,-99.9,30.05,SSW,202,3.0,5.0,-999,-99.99,,,-99.99,,2013-02-21 05:22:00,
2013-02-20 21:42:00,48.0,-99.9,30.07,WSW,248,6.0,9.0,-999,-99.99,,,-99.99,,2013-02-21 05:42:00,
2013-02-20 22:52:00,49.0,-99.9,30.07,NNW,335,6.0,8.0,-999,-99.99,,,-99.99,,2013-02-21 06:52:00,
2013-02-20 23:01:00,47.0,-99.9,30.08,WSW,241,4.0,6.0,-999,-99.99,,,-99.99,,2013-02-21 07:01:00,
2013-02-20 23:11:00,47.0,-99.9,30.07,SW,219,4.0,5.0,-999,-99.99,,,-99.99,,2013-02-21 07:11:00,
2013-02-20 23:22:00,46.0,-99.9,30.07,WSW,247,4.0,7.0,-999,-99.99,,,-99.99,,2013-02-21 07:22:00,
2013-02-20 23:32:00,48.0,-99.9,30.07,West,264,8.0,11.0,-999,-99.99,,,-99.99,,2013-02-21 07:32:00,
2013-02-20 23:42:00,48.0,-99.9,30.07,West,262,8.0,13.0,-999,-99.99,,,-99.99,,2013-02-21 07:42:00,
2013-02-20 23:52:00,48.0,-99.9,30.07,WSW,257,8.0,13.0,-999,-99.99,,,-99.99,,2013-02-21 07:52:00,